Regional Weather Roundup
Issued by NWS

Home | Current Version | Previous Version | Graphics & Text | Print | Product List | Glossary On
Versions: 1 2 3 4 5 6 7 8 9 10 11 12 13 14 15 16 17 18 19 20 21 22 23 24 25 26 27 28 29 30 31 32 33 34 35 36 37 38 39 40 41 42 43 44 45 46 47 48 49
000
ASUS45 KBOU 010207
RWRCO

WEATHER ROUNDUP FOR COLORADO
NATIONAL WEATHER SERVICE DENVER/BOULDER CO
800 PM MDT TUE SEP 30 2014

NOTE: "FAIR" INDICATES FEW OR NO CLOUDS BELOW 12000 FEET WITH NO
SIGNIFICANT WEATHER AND/OR OBSTRUCTIONS TO VISIBILITY.

COZ001>005-013-030-031-010300-
...NORTHWEST COLORADO...

CITY           SKY/WX    TMP DP  RH WIND       PRES   REMARKS
CRAIG          CLOUDY    47  43  86 CALM      29.99R
HAYDEN         CLOUDY    45  41  87 E5        29.99R
MEEKER         MOCLDY    47  43  86 NE3       30.00R
MOUNT WERNER   NOT AVBL
STEAMBOAT SPGS CLOUDY    43  40  88 NE6       30.00R
WALDEN         CLOUDY    41  32  70 W9        30.01R
$$

COZ006>008-011-010300-
...WEST CENTRAL VALLEYS...

CITY           SKY/WX    TMP DP  RH WIND       PRES   REMARKS
GRAND JUNCTION PTCLDY    54  45  71 NE6       29.92R
MONTROSE       CLEAR     52  45  77 S8        29.99R
EAGLE          CLOUDY    48  41  76 N15G21    30.02R
RIFLE          MOCLDY    52  38  58 N6G21     29.97R
DELTA          CLEAR     56  49  77 CALM      29.96R
NUCLA          CLEAR     55  37  50 CALM      30.01R
$$

COZ017>023-064>068-010300-
...SOUTHWEST COLORADO...

CITY           SKY/WX    TMP DP  RH WIND       PRES   REMARKS
DURANGO        CLEAR     51  39  63 CALM      30.01S
CORTEZ         CLEAR     51  43  74 E3        29.99R
PAGOSA SPRINGS CLEAR     46  40  79 CALM      30.07R
TELLURIDE      PTCLDY   N/A N/A N/A CALM      30.12S
WOLF CREEK PAS FOG       30  30 100 SW17      30.21S VSB 3/4 WCI  18
$$

COZ009-010-012-014-032>034-037-058>063-010300-
...CENTRAL COLORADO...

CITY           SKY/WX    TMP DP  RH WIND       PRES   REMARKS
ASPEN          MOCLDY    42  38  85 SW7       30.05R
BUENA VISTA    MOCLDY    48  31  52 W12       30.03R
COPPER MTN     CLOUDY    34  30  86 W10G20    30.17R WCI  26
BERTHOUD PASS  LGT SNOW  27  23  86 W21G29    30.14R WCI  13
COTTONWOOD PAS LGT RAIN  43  32  65 N9        30.08R
GUNNISON       PTCLDY    43  36  75 CALM      30.07R
KREMMLING      DRIZZLE   43  36  75 CALM      30.04R
LEADVILLE      LGT SNOW  35  31  85 W15G23    30.10R FOG     WCI  25
SALIDA         MOCLDY    51  34  51 SW16G23   30.08R
SUNLIGHT       MOCLDY    36  34  93 CALM      30.14S THUNDER
WILKERSON PASS NOT AVBL
$$

COZ069>075-010300-
...SAN LUIS VALLEY/SANGRE DE CRISTO MOUNTAINS...

CITY           SKY/WX    TMP DP  RH WIND       PRES   REMARKS
ALAMOSA        CLEAR     48  35  60 W5        30.01R
LA VETA PASS   PTCLDY    39  30  70 SW6       30.10R
SAGUACHE       PTCLDY    45  34  65 N7        30.05R
$$

COZ035-036-038>040-010300-
...NORTHERN COLORADO FRONT RANGE...

CITY           SKY/WX    TMP DP  RH WIND       PRES   REMARKS
DENVER INTL AP CLOUDY    61  35  37 W21G28    29.88R
DMNS CITY PARK   N/A     60  32  34 E3G9      29.87R
AURORA         MOCLDY    59  33  37 NW16G26   29.90R
FRONT RANGE AP NOT AVBL
ERIE MUNI ARPT CLOUDY    58  36  43 W9        29.87R
BOULDER MUN AP CLOUDY    59  34  38 SW8       29.88R
CENTENNIAL     CLOUDY    60  31  33 N5        29.90R
BROOMFIELD     MOCLDY    59  36  41 W16       29.88R
FORT COLLINS   CLOUDY    59  37  44 SW6       29.86R
LONGMONT       CLOUDY    61  37  40 SW7       29.88R
$$

COZ041-046-047-076>085-087-088-010300-
...PIKES PEAK/PALMER DIVIDE AND SOUTHERN FOOTHILLS...

CITY           SKY/WX    TMP DP  RH WIND       PRES   REMARKS
COLO. SPRINGS  MOCLDY    60  31  33 NE3       29.90R
A. F. ACADEMY  MOCLDY    58  26  29 W13       29.91R
ELLICOTT       NOT AVBL
FALCON         CLOUDY    55  35  48 N3        29.94R
FORT CARSON    MOCLDY    58  33  38 VRB7      29.87R
LIMON          CLOUDY    56  48  74 CALM      29.87R
MONUMENT HILL  CLOUDY    50  36  57 CALM      29.94R
TRINIDAD       MOCLDY    63  33  32 N7        29.86R
$$

COZ042>045-048>051-090-091-010300-
...NORTHEAST COLORADO...

CITY           SKY/WX    TMP DP  RH WIND       PRES   REMARKS
GREELEY ARPT   CLOUDY    61  43  51 CALM      29.85R
AKRON          MOCLDY    59  41  51 CALM      29.82R
BURLINGTON     CLOUDY    59  47  64 S5        29.80R
WRAY           MOCLDY    64  43  47 CALM      29.77R
STERLING       MOCLDY    63  52  67 NW3       29.78R
HOLYOKE        MOCLDY    59  50  72 SW3       29.77S
FORT MORGAN    MOCLDY    59  44  58 NW5       29.82R
$$

COZ086-089-092>099-010300-
...SOUTHEAST COLORADO...

CITY           SKY/WX    TMP DP  RH WIND       PRES   REMARKS
PUEBLO         CLOUDY    67  32  27 NW15      29.81R
LA JUNTA       MOCLDY    66  37  34 SW7       29.79R
LAMAR          MOCLDY    62  45  53 SE10      29.75S
SPRINGFIELD      N/A     56  44  64 E3        29.80R
$$


USA.gov is the U.S. government's official web portal to all federal, state and local government web resources and services.